Tracking 30970 objects as of 3-Jul-2025
HD Live streaming from Space Station
objects crossing your sky now

DMSP 5D-2 F13 DEB

Track DMSP 5D-2 F13 DEB now!
10-day predictions


NORAD ID: 40447
Int'l Code: 1995-015AZ
Perigee: 792.9 km
Apogee: 807.2 km
Inclination: 98.7 °
Period: 100.7 minutes
Semi major axis: 7171 km
RCS: Unknown
Launch date: March 24, 1995
Source: United States (US)
Launch site: AIR FORCE WESTERN TEST RANGE (AFWTR)

Note: This is SATELLITE DEBRIS
Your satellite tracking list
Your tracking list is empty




NASA's NSSDC Master Catalog

Two Line Element Set (TLE):
1 40447U 95015AZ  25183.04275858  .00001260  00000-0  50889-3 0  9999
2 40447  98.6659 206.5182 0009945 274.1245  85.8800 14.29646206536205
Source of the keplerian elements: AFSPC